WB5LJO-13 Weather Reports


Display with metric or nautical units.
time (UTC)temp
F
wind
direction
speed
MPH
gust
MPH
rain 1hr
in
rain 24hr
in
rain mn
in
humidity
%
barometer
mb
20260507192318 78 24 5.0 0.0 0.44 0.00 0.00 16
20260507191818 77 135 0.0 0.0 0.44 0.00 0.00 16
20260507191317 76 103 4.0 0.0 0.44 0.00 0.00 16
20260507190818 74 186 0.0 0.0 0.44 0.00 0.00 17
20260507190318 73 30 3.0 0.0 0.44 0.00 0.00 17
20260507185817 73 125 0.0 0.0 0.44 0.00 0.00 18
20260507185318 73 142 0.0 0.0 0.44 0.00 0.00 18
20260507184818 74 35 0.0 0.0 0.44 0.00 0.00 18
20260507184318 74 267 5.0 0.0 0.44 0.00 0.00 18
20260507183818 74 52 6.0 0.0 0.44 0.00 0.00 20
20260507183318 74 48 5.0 0.0 0.44 0.00 0.00 20
20260507182817 74 17 0.0 0.0 0.44 0.00 0.00 21
20260507182318 73 330 0.0 0.0 0.44 0.00 0.00 21
20260507181817 73 4 5.0 0.0 0.44 0.00 0.00 21
20260507181317 73 17 0.0 0.0 0.44 0.00 0.00 21
20260507180817 73 62 0.0 0.0 0.44 0.00 0.00 22
20260507180317 73 1 3.0 0.0 0.44 0.00 0.00 21
20260507175817 73 18 6.0 0.0 0.44 0.00 0.00 22
20260507175317 73 38 6.0 0.0 0.44 0.00 0.00 22
20260507174817 72 0 7.0 0.0 0.44 0.00 0.00 22
20260507174317 72 44 7.0 0.0 0.44 0.00 0.00 23
20260507173818 72 34 5.0 0.0 0.44 0.00 0.00 24
20260507173317 73 338 0.0 0.0 0.44 0.00 0.00 23
20260507172817 73 4 6.0 0.0 0.44 0.00 0.00 23
20260507172318 73 8 8.0 0.0 0.44 0.00 0.00 23
20260507171817 72 20 7.0 0.0 0.44 0.00 0.00 25
20260507171317 72 21 9.0 0.0 0.44 0.00 0.00 28
20260507170817 71 338 0.0 0.0 0.44 0.00 0.00 27
20260507170318 71 7 3.0 0.0 0.44 0.00 0.00 28
20260507165817 71 302 0.0 0.0 0.44 0.00 0.00 28
20260507165318 71 8 5.0 0.0 0.44 0.00 0.00 29
20260507164818 71 46 3.0 0.0 0.44 0.00 0.00 29
20260507164318 70 34 2.0 0.0 0.44 0.00 0.00 30
20260507163817 70 329 3.0 0.0 0.44 0.00 0.00 30
20260507163318 70 359 3.0 0.0 0.44 0.00 0.00 30
20260507162817 69 59 7.0 0.0 0.44 0.00 0.00 14
20260507162318 69 60 3.0 0.0 0.44 0.00 0.00 31
20260507161818 69 17 7.0 0.0 0.44 0.00 0.00 31
20260507161317 68 30 5.0 0.0 0.44 0.00 0.00 32
20260507160818 68 7 6.0 0.0 0.44 0.00 0.00 33
20260507160317 67 42 5.0 0.0 0.44 0.00 0.00 33
20260507155818 67 6 8.0 0.0 0.44 0.00 0.00 34
20260507155318 67 24 6.0 0.0 0.44 0.00 0.00 34
20260507154818 66 319 6.0 0.0 0.44 0.00 0.00 35
20260507154318 66 6 8.0 0.0 0.44 0.00 0.00 35
20260507153818 65 11 8.0 0.0 0.44 0.00 0.00 36
20260507153318 65 24 7.0 0.0 0.44 0.00 0.00 36
20260507152818 65 32 7.0 0.0 0.44 0.00 0.00 36
20260507152318 64 24 7.0 0.0 0.44 0.00 0.00 37
20260507151818 64 15 6.0 0.0 0.44 0.00 0.00 37
20260507151318 63 17 10.0 0.0 0.44 0.00 0.00 37
20260507150818 63 7 8.0 0.0 0.44 0.00 0.00 37
20260507150318 63 77 6.0 0.0 0.44 0.00 0.00 38
20260507145818 62 8 7.0 0.0 0.44 0.00 0.00 38
20260507145318 62 18 10.0 0.0 0.44 0.00 0.00 38
20260507144818 62 34 8.0 0.0 0.44 0.00 0.00 38
20260507144318 62 28 10.0 0.0 0.44 0.00 0.00 39
20260507143818 61 352 7.0 0.0 0.44 0.00 0.00 39
20260507143318 61 4 7.0 0.0 0.44 0.00 0.00 42
20260507142818 60 345 6.0 0.0 0.44 0.00 0.00 41
20260507142318 60 21 6.0 0.0 0.44 0.00 0.00 42
20260507141818 59 4 7.0 0.0 0.44 0.00 0.00 42
20260507141318 59 14 3.0 0.0 0.44 0.00 0.00 42
20260507140818 59 21 10.0 0.0 0.44 0.00 0.00 43
20260507140318 59 44 9.0 0.0 0.44 0.00 0.00 43
20260507135818 58 8 8.0 0.0 0.44 0.00 0.00 43
20260507135318 58 4 6.0 0.0 0.44 0.00 0.00 43
20260507134819 58 20 8.0 0.0 0.44 0.00 0.00 35
20260507134318 58 32 9.0 0.0 0.44 0.00 0.00 34
20260507133818 58 6 11.0 0.0 0.44 0.00 0.00 42
20260507133318 58 35 10.0 0.0 0.44 0.00 0.00 42
20260507132818 58 17 10.0 0.0 0.44 0.00 0.00 41
20260507132318 58 44 11.0 0.0 0.44 0.00 0.00 41
20260507131818 58 17 10.0 0.0 0.44 0.00 0.00 41
20260507131318 57 347 7.0 0.0 0.44 0.00 0.00 41
20260507130818 57 42 10.0 0.0 0.44 0.00 0.00 42
20260507130318 57 13 7.0 0.0 0.44 0.00 0.00 43
20260507125818 56 0 9.0 0.0 0.44 0.00 0.00 44
20260507125318 56 359 7.0 0.0 0.44 0.00 0.00 45
20260507124818 56 0 7.0 0.0 0.44 0.00 0.00 46
20260507124318 55 359 8.0 0.0 0.44 0.00 0.00 46
20260507123819 55 21 8.0 0.0 0.44 0.00 0.00 46
20260507123318 55 31 8.0 0.0 0.44 0.00 0.00 46
20260507122819 55 10 5.0 0.0 0.44 0.00 0.00 46
20260507122318 55 20 5.0 0.0 0.44 0.00 0.00 46
20260507121820 54 41 5.0 0.0 0.44 0.00 0.00 46
20260507121318 55 27 6.0 0.0 0.44 0.00 0.00 46
20260507120818 55 10 13.0 0.0 0.44 0.00 0.00 45
20260507120318 54 17 9.0 0.0 0.44 0.00 0.00 43
20260507115818 54 352 3.0 0.0 0.44 0.00 0.00 42
20260507115318 54 0 3.0 0.0 0.44 0.00 0.00 41
20260507114818 54 7 6.0 0.0 0.44 0.00 0.00 39
20260507114318 53 35 6.0 0.0 0.44 0.00 0.00 38
20260507113818 53 359 7.0 0.0 0.44 0.00 0.00 37
20260507113318 53 350 6.0 0.0 0.44 0.00 0.00 35
20260507112817 53 28 6.0 0.0 0.44 0.00 0.00 33
20260507112318 53 10 14.0 0.0 0.44 0.00 0.00 32
20260507111818 53 8 8.0 0.0 0.44 0.00 0.00 31
20260507111318 53 37 0.0 0.0 0.44 0.00 0.00 31
20260507110817 53 51 0.0 0.0 0.44 0.00 0.00 31
20260507110318 54 359 6.0 0.0 0.44 0.00 0.00 30
20260507105817 54 27 9.0 0.0 0.44 0.00 0.00 31
20260507105318 54 42 8.0 0.0 0.44 0.00 0.00 31
20260507104818 54 25 11.0 0.0 0.44 0.00 0.00 33
20260507104317 54 205 0.0 0.0 0.44 0.00 0.00 33
20260507103817 54 205 0.0 0.0 0.44 0.00 0.00 33
20260507103317 54 205 0.0 0.0 0.44 0.00 0.00 33
20260507102817 54 205 0.0 0.0 0.44 0.00 0.00 33
20260507102318 54 205 0.0 0.0 0.44 0.00 0.00 33
20260507101818 54 205 0.0 0.0 0.44 0.00 0.00 33
20260507101317 55 205 0.0 0.0 0.44 0.00 0.00 33
20260507100817 55 205 0.0 0.0 0.44 0.00 0.00 32
20260507100317 55 205 0.0 0.0 0.44 0.00 0.00 32
20260507095817 55 205 0.0 0.0 0.44 0.00 0.00 31
20260507095317 56 205 0.0 0.0 0.44 0.00 0.00 31
20260507094817 56 205 0.0 0.0 0.44 0.00 0.00 30
20260507094318 56 205 0.0 0.0 0.44 0.00 0.00 29
20260507093818 57 205 0.0 0.0 0.44 0.00 0.00 29
20260507093318 57 205 0.0 0.0 0.44 0.00 0.00 29
20260507092818 57 205 0.0 0.0 0.44 0.00 0.00 28
20260507092318 58 205 0.0 0.0 0.44 0.00 0.00 28
20260507091818 58 205 0.0 0.0 0.44 0.00 0.00 28
20260507091317 59 205 0.0 0.0 0.44 0.00 0.00 27
20260507090817 59 205 0.0 0.0 0.44 0.00 0.00 27
20260507090318 60 205 0.0 0.0 0.44 0.00 0.00 26
20260507085818 60 205 0.0 0.0 0.44 0.00 0.00 26
20260507085318 60 205 0.0 0.0 0.44 0.00 0.00 25
20260507084818 60 198 7.0 0.0 0.44 0.00 0.00 25
20260507084317 61 217 3.0 0.0 0.44 0.00 0.00 24
20260507083817 61 170 3.0 0.0 0.44 0.00 0.00 23
20260507083318 61 188 0.0 0.0 0.44 0.00 0.00 22
20260507082818 61 233 5.0 0.0 0.44 0.00 0.00 22
20260507082317 60 233 0.0 0.0 0.44 0.00 0.00 22
20260507081817 60 203 4.0 0.0 0.44 0.00 0.00 22
20260507081317 61 159 0.0 0.0 0.44 0.00 0.00 21
20260507080818 61 159 0.0 0.0 0.44 0.00 0.00 21
20260507080317 61 159 0.0 0.0 0.44 0.00 0.00 21
20260507075817 61 191 6.0 0.0 0.44 0.00 0.00 20
20260507075318 60 170 0.0 0.0 0.44 0.00 0.00 20
20260507074818 60 229 6.0 0.0 0.44 0.00 0.00 21
20260507074318 60 180 0.0 0.0 0.44 0.00 0.00 22
20260507073817 60 180 0.0 0.0 0.44 0.00 0.00 22
20260507073317 60 180 0.0 0.0 0.44 0.00 0.00 21
20260507072818 60 17 0.0 0.0 0.44 0.00 0.00 21
20260507072318 61 17 0.0 0.0 0.44 0.00 0.00 21
20260507071818 61 17 0.0 0.0 0.44 0.00 0.00 20
20260507071318 61 17 0.0 0.0 0.44 0.00 0.00 20
20260507070818 61 17 0.0 0.0 0.44 0.00 0.00 19
20260507070318 62 17 0.0 0.0 0.44 0.00 0.00 19
20260507065818 62 17 0.0 0.0 0.44 0.00 0.00 19
20260507065318 62 17 0.0 0.0 0.44 0.00 0.00 18
20260507064818 62 17 0.0 0.0 0.44 0.00 0.00 18
20260507064318 63 10 0.0 0.0 0.44 0.00 0.00 17
20260507063818 63 10 0.0 0.0 0.44 0.00 0.00 18
20260507063318 64 10 0.0 0.0 0.44 0.00 0.00 17
20260507062818 64 10 0.0 0.0 0.44 0.00 0.00 17
20260507062318 64 10 0.0 0.0 0.44 0.00 0.00 17
20260507061818 64 10 0.0 0.0 0.44 0.00 0.00 16
20260507061318 65 10 0.0 0.0 0.44 0.00 0.00 16
20260507060818 65 10 0.0 0.0 0.44 0.00 0.00 16
20260507060318 65 14 0.0 0.0 0.44 0.00 0.00 16
20260507055818 65 14 0.0 0.0 0.44 0.00 0.00 16
20260507055318 66 18 0.0 0.0 0.44 0.00 0.00 16
20260507054818 66 30 3.0 0.0 0.44 0.00 0.00 16
20260507054318 66 66 0.0 0.0 0.44 0.00 0.00 16
20260507053818 66 14 0.0 0.0 0.44 0.00 0.00 16
20260507053318 66 14 0.0 0.0 0.44 0.00 0.00 15
20260507052818 66 7 0.0 0.0 0.44 0.00 0.00 15
20260507052318 66 359 0.0 0.0 0.44 0.00 0.00 15
20260507051818 66 3 0.0 0.0 0.44 0.00 0.00 16
20260507051318 66 30 2.0 0.0 0.44 0.00 0.00 16
20260507050818 66 338 0.0 0.0 0.44 0.00 0.00 15
20260507050318 66 338 0.0 0.0 0.44 0.00 0.00 15
20260507045818 67 338 0.0 0.0 0.44 0.00 0.00 15
20260507045318 67 338 0.0 0.0 0.44 0.00 0.00 14
20260507044818 67 338 0.0 0.0 0.44 0.00 0.00 14
20260507044318 67 338 0.0 0.0 0.44 0.00 0.00 13
20260507043818 67 338 0.0 0.0 0.44 0.00 0.00 13
20260507043318 68 338 0.0 0.0 0.44 0.00 0.00 13
20260507042818 68 305 3.0 0.0 0.44 0.00 0.00 13
20260507042318 68 352 0.0 0.0 0.44 0.00 0.00 13
20260507041818 68 8 0.0 0.0 0.44 0.00 0.00 13
20260507041318 68 359 5.0 0.0 0.44 0.00 0.00 13
20260507040818 68 0 0.0 0.0 0.44 0.00 0.00 13
20260507040318 68 8 6.0 0.0 0.44 0.00 0.00 13
20260507035818 68 311 8.0 0.0 0.44 0.00 0.00 14
20260507035318 68 354 8.0 0.0 0.44 0.00 0.00 14
20260507034817 68 316 4.0 0.0 0.44 0.00 0.00 14
20260507034318 68 11 3.0 0.0 0.44 0.00 0.00 14
20260507033818 68 352 5.0 0.0 0.44 0.00 0.00 15
20260507033318 68 318 2.0 0.0 0.44 0.00 0.00 16
20260507032818 68 20 3.0 0.0 0.44 0.00 0.00 16
20260507032318 68 32 0.0 0.0 0.44 0.00 0.00 14
20260507031818 68 357 0.0 0.0 0.44 0.00 0.00 15
20260507031318 69 305 0.0 0.0 0.44 0.00 0.00 15
20260507030818 69 10 2.0 0.0 0.44 0.00 0.00 16
20260507030318 69 4 3.0 0.0 0.44 0.00 0.00 15
20260507025818 69 11 0.0 0.0 0.44 0.00 0.00 16
20260507025318 70 359 0.0 0.0 0.44 0.00 0.00 15
20260507024818 70 295 0.0 0.0 0.44 0.00 0.00 15
20260507024318 70 295 0.0 0.0 0.44 0.00 0.00 15
20260507023818 71 288 6.0 0.0 0.44 0.00 0.00 15
20260507023318 71 330 0.0 0.0 0.44 0.00 0.00 15
20260507022818 71 4 8.0 0.0 0.44 0.00 0.00 15
20260507022318 71 354 7.0 0.0 0.44 0.00 0.00 15
20260507021818 71 352 4.0 0.0 0.44 0.00 0.00 14
20260507021318 72 15 0.0 0.0 0.44 0.00 0.00 15
20260507020818 72 335 0.0 0.0 0.44 0.00 0.00 15
20260507020318 72 359 3.0 0.0 0.44 0.00 0.00 15
20260507015818 72 359 0.0 0.0 0.44 0.00 0.00 15
20260507015318 72 27 8.0 0.0 0.44 0.00 0.00 15
20260507014818 72 294 0.0 0.0 0.44 0.00 0.00 15
20260507014318 73 342 0.0 0.0 0.44 0.00 0.00 9
20260507013818 73 15 5.0 0.0 0.44 0.00 0.00 9
20260507013318 73 314 0.0 0.0 0.44 0.00 0.00 15
20260507012818 74 314 0.0 0.0 0.44 0.00 0.00 14
20260507012318 74 14 2.0 0.0 0.44 0.00 0.00 14
20260507011818 74 7 0.0 0.0 0.44 0.00 0.00 13
20260507011318 74 229 0.0 0.0 0.44 0.00 0.00 14
20260507010818 75 6 10.0 0.0 0.44 0.00 0.00 14
20260507010318 75 28 0.0 0.0 0.44 0.00 0.00 13
20260507005818 75 359 3.0 0.0 0.44 0.00 0.00 14
20260507005318 75 359 4.0 0.0 0.44 0.00 0.00 14
20260507004818 76 359 3.0 0.0 0.44 0.00 0.00 13
20260507004318 76 285 0.0 0.0 0.44 0.00 0.00 13
20260507003817 76 359 8.0 0.0 0.44 0.00 0.00 0
20260507003318 77 259 7.0 0.0 0.44 0.00 0.00 4
20260507002818 77 342 4.0 0.0 0.44 0.00 0.00 14
20260507002319 77 225 4.0 0.0 0.44 0.00 0.00 13
20260507001818 77 304 10.0 0.0 0.44 0.00 0.00 13
20260507001318 77 302 6.0 0.0 0.44 0.00 0.00 13
20260507000818 77 304 7.0 0.0 0.44 0.00 0.00 13
20260507000320 77 288 5.0 0.0 0.44 0.00 0.00 13
20260506235818 77 270 8.0 0.0 0.44 0.00 0.00 13
20260506235318 77 277 5.0 0.0 0.44 0.00 0.00 13
20260506234818 77 321 9.0 0.0 0.44 0.00 0.00 13
20260506234318 77 335 9.0 0.0 0.44 0.00 0.00 13
20260506233818 77 359 3.0 0.0 0.44 0.00 0.00 13
20260506233318 77 224 5.0 0.0 0.44 0.00 0.00 13
20260506232818 77 329 8.0 0.0 0.44 0.00 0.00 13
20260506232318 78 295 13.0 0.0 0.44 0.00 0.00 13
20260506231818 78 305 9.0 0.0 0.44 0.00 0.00 14
20260506231318 78 281 5.0 0.0 0.44 0.00 0.00 13
20260506230818 78 232 4.0 0.0 0.44 0.00 0.00 12
20260506230319 78 336 9.0 0.0 0.44 0.00 0.00 13
20260506225818 78 201 3.0 0.0 0.44 0.00 0.00 13
20260506225318 78 314 9.0 0.0 0.44 0.00 0.00 13
20260506224818 78 281 9.0 0.0 0.44 0.00 0.00 12
20260506224319 79 287 6.0 0.0 0.44 0.00 0.00 12
20260506223818 79 253 5.0 0.0 0.44 0.00 0.00 13
20260506223318 79 207 5.0 0.0 0.44 0.00 0.00 12
20260506222818 78 283 5.0 0.0 0.44 0.00 0.00 12
20260506222318 78 274 5.0 0.0 0.44 0.00 0.00 13
20260506221818 78 359 5.0 0.0 0.44 0.00 0.00 13
20260506221318 78 340 8.0 0.0 0.44 0.00 0.00 13
20260506220818 78 285 4.0 0.0 0.44 0.00 0.00 13
20260506220318 78 295 12.0 0.0 0.44 0.00 0.00 13
20260506215818 78 198 18.0 0.0 0.44 0.00 0.00 12
20260506215318 78 204 5.0 0.0 0.44 0.00 0.00 13
20260506214818 77 359 0.0 0.0 0.44 0.00 0.00 13
20260506214318 77 235 9.0 0.0 0.44 0.00 0.00 12
20260506213818 78 280 0.0 0.0 0.44 0.00 0.00 13
20260506213318 77 250 6.0 0.0 0.44 0.00 0.00 14
20260506212818 77 270 0.0 0.0 0.44 0.00 0.00 13
20260506212318 78 283 9.0 0.0 0.44 0.00 0.00 13
20260506211818 78 20 3.0 0.0 0.44 0.00 0.00 13
20260506211318 78 340 11.0 0.0 0.44 0.00 0.00 13
20260506210818 77 30 0.0 0.0 0.44 0.00 0.00 14
20260506210318 76 271 10.0 0.0 0.44 0.00 0.00 15
20260506205818 76 316 4.0 0.0 0.44 0.00 0.00 15
20260506205318 76 290 10.0 0.0 0.44 0.00 0.00 15
20260506204818 76 308 8.0 0.0 0.44 0.00 0.00 15
20260506204318 76 339 12.0 0.0 0.44 0.00 0.00 14
20260506203818 76 232 12.0 0.0 0.44 0.00 0.00 15
20260506203318 76 224 16.0 0.0 0.44 0.00 0.00 15
20260506202818 76 240 5.0 0.0 0.44 0.00 0.00 15
20260506202318 76 252 8.0 0.0 0.44 0.00 0.00 15
20260506201318 76 221 5.0 0.0 0.44 0.00 0.00 15
20260506200818 75 269 5.0 0.0 0.44 0.00 0.00 14
20260506200318 75 255 9.0 0.0 0.44 0.00 0.00 14
20260506195818 75 328 14.0 0.0 0.44 0.00 0.00 15
20260506195318 75 294 7.0 0.0 0.44 0.00 0.00 15
20260506194820 75 271 3.0 0.0 0.44 0.00 0.00 15
20260506194318 75 304 15.0 0.0 0.44 0.00 0.00 17
20260506193818 75 240 8.0 0.0 0.44 0.00 0.00 17
20260506193318 74 294 0.0 0.0 0.44 0.00 0.00 17
20260506192818 74 198 10.0 0.0 0.44 0.00 0.00 16